| time (UTC) | temp F | wind direction | speed MPH | gust MPH | rain 1hr in | rain 24hr in | rain mn in | humidity % | barometer mb |
| 20260904094801 | 71 | 239 | 1.0 | 2.0 | 0.00 | 0.04 | 0.03 | 99 | 1010.8 |
| 20260904093603 | 72 | 255 | 1.0 | 2.0 | 0.00 | 0.04 | 0.03 | 99 | 1010.7 |
| 20260904092402 | 71 | 113 | 3.0 | 7.0 | 0.00 | 0.04 | 0.03 | 99 | 1011.3 |
| 20260904091203 | 71 | 124 | 2.0 | 2.0 | 0.00 | 0.04 | 0.03 | 99 | 1011.5 |
| 20260904090002 | 71 | 138 | 1.0 | 2.0 | 0.00 | 0.04 | 0.03 | 99 | 1011.6 |
| 20260904084802 | 71 | 155 | 5.0 | 7.0 | 0.00 | 0.04 | 0.03 | 99 | 1011.2 |
| 20260904083604 | 71 | 284 | 3.0 | 6.0 | 0.00 | 0.04 | 0.03 | 99 | 1010.9 |
| 20260904082403 | 72 | 180 | 2.0 | 2.0 | 0.00 | 0.04 | 0.03 | 99 | 1010.4 |
| 20260904081202 | 72 | 226 | 2.0 | 5.0 | 0.00 | 0.04 | 0.03 | 99 | 1011.0 |
| 20260904080002 | 72 | 285 | 3.0 | 5.0 | 0.00 | 0.04 | 0.03 | 99 | 1011.1 |
| 20260904074803 | 73 | 224 | 3.0 | 3.0 | 0.00 | 0.04 | 0.03 | 99 | 1011.0 |
| 20260904073603 | 72 | 354 | 1.0 | 2.0 | 0.00 | 0.04 | 0.03 | 99 | 1010.5 |
| 20260904072402 | 73 | 165 | 0.0 | 2.0 | 0.00 | 0.05 | 0.03 | 97 | 1010.5 |
| 20260904071202 | 73 | 168 | 2.0 | 3.0 | 0.00 | 0.06 | 0.03 | 99 | 1010.7 |
| 20260904070003 | 75 | 148 | 3.0 | 7.0 | 0.00 | 0.11 | 0.03 | 91 | 1010.6 |
| 20260904064803 | 73 | 240 | 1.0 | 7.0 | 0.00 | 0.12 | 0.03 | 97 | 1009.9 |
| 20260904063604 | 73 | 184 | 2.0 | 2.0 | 0.00 | 0.12 | 0.03 | 99 | 1010.1 |
| 20260904062402 | 74 | 329 | 0.0 | 0.0 | 0.00 | 0.12 | 0.03 | 99 | 1010.4 |
| 20260904061203 | 74 | 175 | 1.0 | 3.0 | 0.00 | 0.12 | 0.03 | 97 | 1010.3 |
| 20260904060003 | 74 | 226 | 5.0 | 6.0 | 0.00 | 0.12 | 0.03 | 97 | 1010.7 |
| 20260904054802 | 75 | 157 | 1.0 | 2.0 | 0.00 | 0.12 | 0.03 | 95 | 1010.6 |
| 20260904053602 | 76 | 88 | 0.0 | 0.0 | 0.00 | 0.12 | 0.03 | 92 | 1011.0 |
| 20260904052404 | 76 | 15 | 0.0 | 1.0 | 0.00 | 0.13 | 0.03 | 93 | 1011.0 |
| 20260904051203 | 76 | 85 | 0.0 | 0.0 | 0.00 | 0.13 | 0.03 | 90 | 1010.6 |
| 20260904050003 | 76 | 227 | 1.0 | 3.0 | 0.00 | 0.13 | 0.03 | 91 | 1011.0 |
| 20260904044803 | 76 | 223 | 2.0 | 3.0 | 0.00 | 0.13 | 0.03 | 90 | 1011.1 |
| 20260904043602 | 76 | 303 | 2.0 | 3.0 | 0.00 | 0.14 | 0.03 | 90 | 1010.6 |
| 20260904042402 | 78 | 34 | 0.0 | 0.0 | 0.00 | 0.14 | 0.03 | 83 | 1010.7 |
| 20260904041203 | 77 | 342 | 2.0 | 6.0 | 0.00 | 0.14 | 0.03 | 87 | 1010.8 |
| 20260904040003 | 77 | 285 | 1.0 | 3.0 | 0.00 | 0.14 | 0.03 | 84 | 1010.7 |
| 20260904034804 | 77 | 120 | 2.0 | 3.0 | 0.00 | 0.14 | 0.03 | 87 | 1010.6 |
| 20260904033603 | 77 | 30 | 0.0 | 0.0 | 0.00 | 0.15 | 0.03 | 88 | 1010.5 |
| 20260904032403 | 76 | 359 | 3.0 | 6.0 | 0.00 | 0.15 | 0.03 | 91 | 1010.6 |
| 20260904031202 | 76 | 40 | 1.0 | 1.0 | 0.01 | 0.15 | 0.03 | 86 | 1010.9 |
| 20260904030003 | 75 | 132 | 1.0 | 2.0 | 0.01 | 0.15 | 0.03 | 91 | 1010.7 |
| 20260904024802 | 75 | 141 | 3.0 | 5.0 | 0.01 | 0.15 | 0.03 | 94 | 1010.9 |
| 20260904023602 | 75 | 104 | 1.0 | 2.0 | 0.01 | 0.15 | 0.03 | 95 | 1010.9 |
| 20260904022402 | 74 | 329 | 3.0 | 6.0 | 0.01 | 0.15 | 0.03 | 97 | 1011.0 |
| 20260904021202 | 69 | 300 | 3.0 | 5.0 | 0.00 | 0.14 | 0.02 | 99 | 1011.0 |
| 20260904020003 | 69 | 300 | 3.0 | 5.0 | 0.00 | 0.14 | 0.02 | 99 | 1011.9 |
| 20260904014803 | 69 | 300 | 3.0 | 5.0 | 0.00 | 0.14 | 0.02 | 99 | 1011.8 |
| 20260904013603 | 69 | 300 | 3.0 | 5.0 | 0.00 | 0.14 | 0.02 | 99 | 1011.9 |
| 20260904012402 | 69 | 300 | 3.0 | 5.0 | 0.00 | 0.14 | 0.02 | 99 | 1011.9 |
| 20260904011201 | 69 | 300 | 3.0 | 5.0 | 0.00 | 0.14 | 0.02 | 99 | 1011.8 |
| 20260904010002 | 69 | 300 | 3.0 | 5.0 | 0.00 | 0.14 | 0.02 | 99 | 1011.8 |
| 20260904004801 | 69 | 300 | 3.0 | 5.0 | 0.00 | 0.14 | 0.02 | 99 | 1012.1 |
| 20260904003601 | 69 | 300 | 3.0 | 5.0 | 0.00 | 0.14 | 0.02 | 99 | 1012.4 |
| 20260904002400 | 69 | 300 | 3.0 | 5.0 | 0.00 | 0.14 | 0.02 | 99 | 1012.7 |
| 20260904001203 | 69 | 300 | 3.0 | 5.0 | 0.00 | 0.14 | 0.02 | 99 | 1012.6 |
| 20260904000004 | 69 | 300 | 3.0 | 5.0 | 0.00 | 0.14 | 0.02 | 99 | 1012.6 |
| 20260903234804 | 69 | 300 | 3.0 | 5.0 | 0.00 | 0.14 | 0.02 | 99 | 1012.4 |
| 20260903233605 | 69 | 300 | 3.0 | 5.0 | 0.00 | 0.14 | 0.02 | 99 | 1012.4 |
| 20260903232404 | 69 | 300 | 3.0 | 5.0 | 0.00 | 0.14 | 0.02 | 99 | 1012.1 |
| 20260903231204 | 69 | 300 | 3.0 | 5.0 | 0.00 | 0.14 | 0.02 | 99 | 1012.1 |
| 20260903230002 | 69 | 300 | 3.0 | 5.0 | 0.00 | 0.14 | 0.02 | 99 | 1012.0 |
| 20260903224802 | 69 | 300 | 3.0 | 5.0 | 0.00 | 0.14 | 0.02 | 99 | 1012.1 |
| 20260903223605 | 69 | 300 | 3.0 | 5.0 | 0.00 | 0.14 | 0.02 | 99 | 1012.5 |
| 20260903222403 | 69 | 300 | 3.0 | 5.0 | 0.00 | 0.14 | 0.02 | 99 | 1012.5 |
| 20260903221203 | 69 | 300 | 3.0 | 5.0 | 0.00 | 0.14 | 0.02 | 99 | 1012.0 |
| 20260903220003 | 69 | 300 | 3.0 | 5.0 | 0.00 | 0.14 | 0.02 | 99 | 1012.1 |
| 20260903214802 | 69 | 300 | 3.0 | 5.0 | 0.00 | 0.14 | 0.02 | 99 | 1012.0 |
| 20260903213603 | 69 | 300 | 3.0 | 5.0 | 0.00 | 0.14 | 0.02 | 99 | 1011.9 |
| 20260903212403 | 69 | 300 | 3.0 | 5.0 | 0.00 | 0.14 | 0.02 | 99 | 1011.4 |
| 20260903211202 | 69 | 300 | 3.0 | 5.0 | 0.00 | 0.14 | 0.02 | 99 | 1011.2 |
| 20260903210002 | 69 | 300 | 3.0 | 5.0 | 0.01 | 0.14 | 0.02 | 99 | 1011.6 |
| 20260903204803 | 69 | 300 | 3.0 | 5.0 | 0.01 | 0.14 | 0.02 | 99 | 1011.4 |
| 20260903203603 | 69 | 300 | 3.0 | 5.0 | 0.01 | 0.14 | 0.02 | 99 | 1011.3 |
| 20260903202402 | 69 | 300 | 3.0 | 5.0 | 0.01 | 0.14 | 0.02 | 99 | 1010.5 |
| 20260903201202 | 69 | 222 | 2.0 | 3.0 | 0.01 | 0.14 | 0.02 | 99 | 1010.7 |
| 20260903200002 | 69 | 98 | 1.0 | 2.0 | 0.00 | 0.13 | 0.01 | 99 | 1010.6 |
| 20260903194803 | 69 | 127 | 2.0 | 3.0 | 0.00 | 0.13 | 0.01 | 99 | 1010.0 |
| 20260903193603 | 69 | 25 | 1.0 | 2.0 | 0.00 | 0.13 | 0.01 | 99 | 1010.3 |
| 20260903192404 | 69 | 159 | 1.0 | 2.0 | 0.00 | 0.13 | 0.01 | 99 | 1010.9 |
| 20260903191203 | 69 | 147 | 3.0 | 5.0 | 0.00 | 0.13 | 0.01 | 99 | 1010.2 |
| 20260903190003 | 69 | 139 | 2.0 | 5.0 | 0.00 | 0.13 | 0.01 | 99 | 1009.8 |
| 20260903184804 | 69 | 5 | 2.0 | 2.0 | 0.00 | 0.13 | 0.01 | 99 | 1009.6 |
| 20260903183603 | 69 | 287 | 0.0 | 2.0 | 0.00 | 0.13 | 0.01 | 99 | 1009.6 |
| 20260903182402 | 69 | 287 | 1.0 | 2.0 | 0.00 | 0.13 | 0.01 | 99 | 1009.5 |
| 20260903181202 | 69 | 320 | 0.0 | 0.0 | 0.00 | 0.13 | 0.01 | 99 | 1009.5 |
| 20260903180002 | 69 | 103 | 0.0 | 2.0 | 0.00 | 0.13 | 0.01 | 99 | 1009.6 |
| 20260903174803 | 69 | 259 | 2.0 | 3.0 | 0.00 | 0.13 | 0.01 | 99 | 1009.9 |
| 20260903173603 | 69 | 332 | 0.0 | 0.0 | 0.00 | 0.13 | 0.01 | 99 | 1009.6 |
| 20260903172403 | 69 | 313 | 2.0 | 3.0 | 0.00 | 0.13 | 0.01 | 99 | 1009.4 |
| 20260903171202 | 69 | 296 | 1.0 | 2.0 | 0.00 | 0.13 | 0.01 | 99 | 1009.6 |
| 20260903170002 | 69 | 358 | 1.0 | 3.0 | 0.00 | 0.13 | 0.01 | 99 | 1009.4 |
| 20260903164803 | 69 | 98 | 3.0 | 5.0 | 0.00 | 0.13 | 0.01 | 99 | 1009.4 |
| 20260903163603 | 69 | 56 | 2.0 | 3.0 | 0.00 | 0.13 | 0.01 | 99 | 1009.8 |
| 20260903162403 | 70 | 39 | 3.0 | 5.0 | 0.00 | 0.13 | 0.01 | 99 | 1009.6 |
| 20260903161202 | 70 | 120 | 1.0 | 2.0 | 0.01 | 0.13 | 0.01 | 99 | 1009.3 |
| 20260903160003 | 70 | 318 | 3.0 | 5.0 | 0.01 | 0.13 | 0.01 | 99 | 1009.4 |
| 20260903154803 | 70 | 302 | 3.0 | 6.0 | 0.00 | 0.13 | 0.01 | 99 | 1009.5 |
| 20260903153602 | 70 | 285 | 0.0 | 2.0 | 0.00 | 0.13 | 0.01 | 99 | 1009.5 |
| 20260903152402 | 70 | 237 | 1.0 | 2.0 | 0.00 | 0.13 | 0.01 | 99 | 1010.1 |
| 20260903151201 | 70 | 240 | 2.0 | 2.0 | 0.00 | 0.12 | 0.00 | 99 | 1009.8 |
| 20260903150004 | 70 | 309 | 1.0 | 2.0 | 0.00 | 0.12 | 0.12 | 99 | 1010.0 |
| 20260903144802 | 70 | 320 | 2.0 | 3.0 | 0.00 | 0.12 | 0.12 | 99 | 1010.0 |
| 20260903143603 | 70 | 258 | 2.0 | 2.0 | 0.00 | 0.12 | 0.12 | 99 | 1009.9 |
| 20260903142402 | 70 | 83 | 0.0 | 0.0 | 0.00 | 0.12 | 0.12 | 99 | 1009.9 |
| 20260903141202 | 70 | 12 | 2.0 | 3.0 | 0.00 | 0.12 | 0.12 | 99 | 1010.1 |
| 20260903140004 | 70 | 57 | 3.0 | 6.0 | 0.00 | 0.12 | 0.12 | 99 | 1009.9 |
| 20260903134803 | 70 | 211 | 3.0 | 5.0 | 0.00 | 0.12 | 0.12 | 99 | 1009.8 |
| 20260903133603 | 70 | 251 | 1.0 | 2.0 | 0.00 | 0.12 | 0.12 | 99 | 1009.5 |
| 20260903132403 | 70 | 353 | 0.0 | 0.0 | 0.00 | 0.12 | 0.12 | 99 | 1009.3 |
| 20260903131202 | 70 | 22 | 1.0 | 2.0 | 0.00 | 0.12 | 0.12 | 99 | 1009.9 |
| 20260903130001 | 70 | 124 | 2.0 | 3.0 | 0.00 | 0.12 | 0.12 | 99 | 1010.2 |
| 20260903124803 | 70 | 108 | 2.0 | 3.0 | 0.00 | 0.12 | 0.12 | 99 | 1010.7 |
| 20260903123604 | 70 | 349 | 5.0 | 7.0 | 0.00 | 0.12 | 0.12 | 99 | 1010.0 |
| 20260903122403 | 70 | 330 | 5.0 | 6.0 | 0.00 | 0.12 | 0.12 | 99 | 1010.5 |
| 20260903121202 | 70 | 175 | 5.0 | 6.0 | 0.00 | 0.12 | 0.12 | 99 | 1010.4 |
| 20260903120003 | 70 | 228 | 2.0 | 3.0 | 0.00 | 0.12 | 0.12 | 99 | 1010.5 |
| 20260903114801 | 70 | 114 | 0.0 | 1.0 | 0.00 | 0.12 | 0.12 | 99 | 1010.7 |
| 20260903113601 | 70 | 40 | 0.0 | 0.0 | 0.00 | 0.12 | 0.12 | 99 | 1011.0 |
| 20260903112403 | 70 | 305 | 2.0 | 3.0 | 0.00 | 0.12 | 0.12 | 99 | 1011.3 |
| 20260903111202 | 70 | 99 | 2.0 | 5.0 | 0.00 | 0.12 | 0.12 | 99 | 1011.4 |
| 20260903110002 | 70 | 65 | 3.0 | 3.0 | 0.01 | 0.12 | 0.12 | 99 | 1011.3 |
| 20260903104803 | 70 | 294 | 2.0 | 2.0 | 0.01 | 0.12 | 0.12 | 99 | 1010.9 |
| 20260903103604 | 70 | 181 | 0.0 | 0.0 | 0.01 | 0.12 | 0.12 | 99 | 1011.1 |
| 20260903102402 | 70 | 206 | 3.0 | 5.0 | 0.01 | 0.12 | 0.12 | 99 | 1011.1 |
| 20260903101202 | 70 | 300 | 1.0 | 2.0 | 0.01 | 0.12 | 0.12 | 99 | 1011.0 |
| 20260903100002 | 70 | 204 | 2.0 | 2.0 | 0.00 | 0.11 | 0.11 | 99 | 1010.4 |